Location: Bottenau
(48.5138°N, 8.0462°E)
Time: 10:28:00
(UTC+00:00)

Cosmos 1842 Rocket - Pass Details

Date: 18 April 2021
Orbit: 606 x 633 km, 82.5° (Epoch: 05 May)

Event Time Altitude Azimuth Distance (km) Brightness Sun altitude
Exits shadow 21:49:34 56° 20° (NNE) 753 4.1 -26.6°
Drops below altitude 10° 21:53:08 10° 11° (NNE) 2,019 6.8 -26.8°
Sets 21:55:23 0° 11° (N) 2,935 7.8 -27.0°
